Weather History for NZCH - November, 2012

Change the Weather History Date:

Sunday, November 4, 2012

  Actual Average Record
Temperature  
Mean Temperature 46 °F -  
Max Temperature 55 °F 62 °F 75 °F (1997)
Min Temperature 37 °F 43 °F 30 °F (2000)
Degree Days  
Heating Degree Days 19    
Moisture  
Dew Point 38 °F    
Average Humidity 72    
Maximum Humidity 93    
Minimum Humidity 47    
Precipitation  
Precipitation 0.00 in - - ()
Sea Level Pressure  
Sea Level Pressure 29.95 in    
Wind  
Wind Speed 6 mph ()    
Max Wind Speed 17 mph    
Max Gust Speed -    
Visibility 6.2 miles    
Events      
Averages and records for this station are not official NWS values.
T = Trace of Precipitation, MM = Missing Value Source: Averaged Metar Reports

Daily Weather History Graph

Daily Weather History Graph

Search for Another Location

Airport or City:

Trip Planner

Search our weather history database for the weather conditions in past years. The results will help you decide how hot, cold, wet, or windy it might be!

Date:

Astronomy

Nov. 04, 2012 Rise Set
Actual Time 6:08 AM NZDT 8:19 PM NZDT
Civil Twilight 5:36 AM NZDT 8:50 PM NZDT
Nautical Twilight 4:57 AM NZDT 9:29 PM NZDT
Astronomical Twilight 4:15 AM NZDT 10:12 PM NZDT
Moon 12:07 AM NZDT (11/4) 9:42 AM NZDT (11/4)
Length of Visible Light 15h 14m
Length of Day
14h 11m
Waning Gibbous, 78% of the Moon is Illuminated
Nov 4
Waning Gibbous
Nov 7
Last Quarter
Nov 14
New
Nov 21
First Quarter
Nov 29
Full

Hourly Weather History & Observations

Time (NZDT) Temp. Windchill Dew Point Humidity Pressure Visibility Wind Dir Wind Speed Gust Speed Precip Events Conditions
12:00 AM 41.0 °F 36.4 °F 37.4 °F 87% 29.86 in 6.2 mi West 6.9 mph - N/A   Mostly Cloudy
1:00 AM 39.2 °F 34.2 °F 37.4 °F 93% 29.89 in 6.2 mi West 6.9 mph - N/A   Mostly Cloudy
2:00 AM 41.0 °F 37.1 °F 37.4 °F 87% 29.92 in 6.2 mi SW 5.8 mph - N/A   Mostly Cloudy
3:00 AM 39.2 °F 35.9 °F 37.4 °F 93% 29.92 in 6.2 mi West 4.6 mph - N/A   Scattered Clouds
4:00 AM 41.0 °F 37.1 °F 37.4 °F 87% 29.92 in 6.2 mi West 5.8 mph - N/A   Scattered Clouds
5:00 AM 41.0 °F 39.0 °F 37.4 °F 87% 29.95 in 6.2 mi SSE 3.5 mph - N/A   Mostly Cloudy
6:00 AM 39.2 °F - 37.4 °F 93% 29.95 in 6.2 mi West 1.2 mph - N/A   Partly Cloudy
7:00 AM 37.4 °F - 35.6 °F 93% 29.98 in 6.2 mi Calm Calm - N/A   Partly Cloudy
8:00 AM 42.8 °F - 39.2 °F 87% 30.01 in 6.2 mi SE 2.3 mph - N/A   Partly Cloudy
9:00 AM 46.4 °F - 35.6 °F 66% 30.01 in 6.2 mi NE 1.2 mph - N/A   Partly Cloudy
10:00 AM 48.2 °F - 39.2 °F 71% 30.01 in 6.2 mi WNW 2.3 mph - N/A   Scattered Clouds
11:00 AM 51.8 °F - 33.8 °F 50% 30.01 in 6.2 mi SSE 4.6 mph - N/A   Scattered Clouds
12:00 PM 51.8 °F - 32.0 °F 47% 30.01 in 6.2 mi WSW 4.6 mph - N/A   Scattered Clouds
1:00 PM 55.4 °F - 35.6 °F 47% 29.98 in 6.2 mi NNW 4.6 mph - N/A   Scattered Clouds
2:00 PM 55.4 °F - 37.4 °F 51% 29.95 in 6.2 mi North 9.2 mph - N/A   Partly Cloudy
3:00 PM 55.4 °F - 37.4 °F 51% 29.95 in 6.2 mi ENE 8.1 mph - N/A   Partly Cloudy
4:00 PM 55.4 °F - 39.2 °F 54% 29.92 in 6.2 mi ENE 12.7 mph - N/A   Partly Cloudy
5:00 PM 53.6 °F - 37.4 °F 54% 29.92 in 6.2 mi ENE 16.1 mph - N/A   Partly Cloudy
6:00 PM 53.6 °F - 39.2 °F 58% 29.92 in 6.2 mi ENE 16.1 mph - N/A   Partly Cloudy
7:00 PM 51.8 °F - 41.0 °F 67% 29.92 in - ENE 17.3 mph - N/A   Clear
8:00 PM 50.0 °F - 41.0 °F 71% 29.92 in - ENE 15.0 mph - N/A   Clear
9:00 PM 48.2 °F - 41.0 °F 76% 29.95 in - ENE 10.4 mph - N/A   Clear
10:00 PM 48.2 °F - 42.8 °F 82% 29.95 in - ENE 6.9 mph - N/A   Clear
11:00 PM 48.2 °F - 42.8 °F 82% 29.98 in - NE 2.3 mph - N/A   Clear